Regional Weather Roundup
Issued by NWS Sioux Falls, SD

Home | Current Version | Previous Version | Graphics & Text | Print | Product List | Glossary On
Versions: 1 2 3 4 5 6 7 8 9 10 11 12 13 14 15 16 17 18 19 20 21 22 23 24 25 26 27 28 29 30 31 32 33 34 35 36 37 38 39 40 41 42 43 44 45 46 47 48 49 50
000
ASUS43 KFSD 231902
RWRFSD

WEATHER ROUNDUP FOR SE SOUTH DAKOTA/SW MINNESOTA/NW IOWA
NATIONAL WEATHER SERVICE SIOUX FALLS SD
200 PM CDT MON APR 23 2018

NOTE: "FAIR" INDICATES FEW OR NO CLOUDS BELOW 12,000 FEET WITH NO
SIGNIFICANT WEATHER AND OR OBSTRUCTIONS TO VISIBILITY.


SDZ038>040-050-052>070-232000-
SOUTHEAST SOUTH DAKOTA

CITY           SKY/WX    TMP DP  RH WIND       PRES   REMARKS
BROOKINGS      SUNNY     65  37  35 VRB5      30.17F
CHAMBERLAIN    MOSUNNY   69  40  35 SE12      30.13F
HURON          SUNNY     67  39  35 S9        30.14F
MADISON        FAIR      64  36  34 S7        30.17F
MITCHELL       SUNNY     68  39  34 SE5       30.15F
SIOUX FALLS    MOSUNNY   68  34  28 SE10      30.16F
WINNER         MOCLDY    66  39  37 SE13      30.12F
YANKTON        SUNNY     68  37  32 SE9       30.15F
$$

MNZ071-072-080-081-089-090-097-098-232000-
SOUTHWEST MINNESOTA

CITY           SKY/WX    TMP DP  RH WIND       PRES   REMARKS
FAIRMONT       SUNNY     58  39  49 CALM      30.20F
JACKSON        SUNNY     61  37  41 CALM      30.20F
LUVERNE        SUNNY     64  30  27 CALM      30.18F
MARSHALL       SUNNY     65  39  38 SW5       30.19F
MONTEVIDEO     SUNNY     70  39  32 N3        30.18F
PIPESTONE      SUNNY    N/A N/A N/A SE5       30.18F
REDWOOD FALLS  SUNNY     64  37  36 SW3       30.18F
TRACY          SUNNY     62  39  42 SW5       30.19F
WINDOM         SUNNY     64  36  34 W3        30.19F
$$

IAZ001>003-012>014-020>022-031-032-NEZ013-014-SDZ071-232000-
NORTHWEST IOWA

CITY           SKY/WX    TMP DP  RH WIND       PRES   REMARKS
CHEROKEE       SUNNY     67  32  27 E8        30.16F
DENISON        SUNNY     68  32  26 NE10G17   30.15F
ESTHERVILLE    SUNNY     58  38  47 NE3       30.19F
LE MARS        SUNNY     70  30  23 NE8       30.15F
ORANGE CITY    SUNNY     68  36  30 S5        30.16F
SHELDON        SUNNY     66  34  30 E8        30.16F
SIOUX CITY     SUNNY     70  29  21 E7        30.14F
SPENCER        SUNNY     67  36  31 E9        30.18F
STORM LAKE     SUNNY     64  36  34 NE14      30.16F
$$

ABBREVIATIONS USED IN REMARKS
   TC - TEMPERATURE IN CELSIUS
  WCI - WIND CHILL INDEX
   HX - HEAT INDEX
  VSB - VISIBILITY





USA.gov is the U.S. government's official web portal to all federal, state and local government web resources and services.